Погода в Мысхако

Россия / Краснодарский край     44°39′26″N   37°45′37″E
темп.,
°C
ветер,
м/с
пор.,
м/с
влажн.,
%
обл.,
%
осадки,
мм/ч
давл.,
гПа
погр.,
м
21 июня, пн
пн2100:00+19с21770 0.0 101125
03:00+19всв11810 0.0 101011
06:00+20св11850 0.0 101019
09:00+26ссв13630 0.0 1010525
12:00+29вюв13542 0.0 10091032
15:00+28ю22583 0.0 1009984
18:00+26юз116823 0.0 1009261
21:00+22з11890 0.0 100918
22 июня, вт
вт2200:00+20юз11931 0.0 101023
03:00+19юв11911 0.0 100911
06:00+20ю23910 0.0 1010141
09:00+24ююв23680 0.0 1010445
12:00+26ю33626 0.1 1011603
15:00+25ю346210 0.3 1011484
18:00+22ю227934 0.2 1011347
21:00+19ююв119255 0.2 101228
23 июня, ср
ср2300:00+19ююв239814 0.6 101288
03:00+19юв249838 0.6 1013116
06:00+19юв249761 0.1 1013191
09:00+22ю357940 0.2 1014637
12:00+25ю22637 0.0 1014835
15:00+28ююз23572 0.0 10131104
18:00+24з237128 0.1 1013484
21:00+20зсз119113 0.1 101327
24 июня, чт
чт2400:00+19з1190100 0.0 101313
03:00+19ю2292100 0.0 101446
06:00+20ю239263 0.0 1014233
09:00+21ю238856 4.6 1015530
12:00+24ю33689 0.9 1014775
15:00+25ю2373100 2.0 1014869
18:00+24зсз237834 2.3 1014395
21:00+20ссз11977 6.3 101424
25 июня, пт
пт2500:00+19сз11965 3.9 101415
03:00+19ссв11965 3.9 101412
06:00+20ююв2298100 0.0 1014145
09:00+21ю2391100 0.0 1014385
12:00+24ю2270100 0.0 1015780
15:00+24ю327198 0.0 1014546
18:00+23ююз227513 0.1 1014466
21:00+19ююв129611 3.8 101432